Location: B?ez�
(49.4891°N, 12.8807°E)
Time: 13:23:55
(UTC+00:00)

Daily predictions for brighter satellites

Satellite Brightness Start Highest point End
(mag) Time Altitude Azimuth Time Altitude Azimuth Time Altitude Azimuth
Cosmos 1844 3.7 19:10:36 10° SSW 19:16:18 76° ESE 19:21:59 10° NNE
SOZ 4.4 19:14:45 10° WSW 19:17:58 60° SSE 19:20:08 10° ENE
Ariane Rocket 3.1 19:13:27 10° SSE 19:18:31 82° WSW 19:23:37 10° NNW
ARIANE 5 R/B 4.1 19:15:39 10° ESE 19:19:02 23° ENE 19:22:27 10° N
Cosmos 1833 Rocket 3.5 19:14:15 10° NNW 19:19:37 41° NE 19:24:56 10° ESE
SL-4 R/B 4.4 19:17:47 10° W 19:20:35 17° SW 19:23:29 10° S
Cosmos 1745 Rocket 4.1 19:15:38 10° N 19:21:53 88° W 19:28:02 10° S
Resurs 1-3 3.7 19:18:23 10° SSE 19:22:46 81° WSW 19:27:11 10° NNW
Cosmos 1709 Rocket 4.1 19:18:13 10° N 19:24:17 60° ENE 19:30:18 10° SSE
NOSS 3-4 (A) 4.5 19:22:12 10° NW 19:28:40 47° NE 19:35:54 10° ESE
NOSS 3-4 (C) 4.5 19:22:19 10° NW 19:28:47 47° NE 19:36:00 10° ESE
Cosmos 1666 Rocket 3.6 19:25:26 10° N 19:29:50 67° ENE 19:34:10 10° SSE
BREEZE-M DEB (TANK) 4.3 19:25:46 10° W 19:29:56 52° SSW 19:37:54 10° ESE
USA 307 3.3 19:30:35 10° WNW 19:34:50 62° NNE 19:39:05 10° E
Cosmos 1437 3.6 19:33:39 10° SSE 19:36:03 25° E 19:38:29 10° NE
CZ-2C R/B 4.2 19:32:45 10° NNE 19:36:58 38° E 19:41:12 10° SSE
Cosmos 968 Rocket 4.4 19:33:31 10° SW 19:38:38 54° WNW 19:43:46 10° NNE
NOSS 3-3 (A) 4.1 19:33:57 10° SSW 19:39:28 50° ESE 19:45:46 10° NE
NOSS 3-3 (C) 4.1 19:34:04 10° SSW 19:39:35 50° ESE 19:45:52 10° NE
Intercosmos 24 3.8 19:38:17 10° SSW 19:41:56 76° WNW 19:45:36 10° N
ATLAS 2AS CENTAUR R/B 3.8 19:34:52 10° NW 19:41:58 40° NNE 19:48:34 10° E
Cosmos 1354 Rocket 4.0 19:37:26 10° SSW 19:42:39 74° ESE 19:47:54 10° NNE
Sich 1 3.7 19:39:43 10° NNW 19:43:57 55° W 19:48:13 10° S
S3M 4.3 19:38:12 10° SSW 19:44:35 77° W 19:50:56 10° N
USA 245 3.1 19:43:37 15° ESE 19:44:58 27° ENE 19:47:00 10° N
SJ 16-02 2.8 19:42:35 11° SE 19:45:29 20° E 19:48:45 10° NE
OBJECT-B 3.5 19:44:48 10° SW 19:47:10 19° W 19:49:33 10° NW
SPOT 1/Viking Rocket 3.7 19:42:59 10° SSE 19:48:06 63° ENE 19:53:15 10° N
Meteor 1-26 Rocket 4.2 19:42:46 10° S 19:48:24 71° E 19:53:54 10° NNE
USA 308 3.1 19:44:10 10° WNW 19:48:28 70° NNE 19:52:37 11° ESE
Cosmos 2315 Rocket 4.1 19:43:58 10° S 19:50:16 68° E 19:56:37 10° NNE
Cosmos 1500 3.3 19:49:16 10° N 19:53:00 58° ENE 19:56:07 14° SSE
USA 215 4.3 19:46:52 10° ENE 19:53:03 47° N 19:59:15 10° WNW
Terra 3.1 19:54:08 13° ESE 19:57:38 28° ENE 20:01:41 10° N
BREEZE M DEB (TANK) 1.9 19:52:29 10° W 19:57:50 83° SSW 19:59:41 16° ESE
Meteor 1-14 Rocket 4.3 19:52:57 10° N 19:58:52 78° ENE 20:04:21 11° SSE
Cosmos 2082 Rocket 2.9 19:54:06 10° NNW 19:59:28 43° NE 20:03:59 14° ESE
SPOT 3 Rocket 3.9 19:57:38 10° S 20:02:45 66° WSW 20:07:54 10° NNW
Cosmos 1151 Rocket 3.0 19:58:29 10° S 20:02:51 89° W 20:07:16 10° N
SPOT 5 3.6 19:59:20 15° SE 20:03:20 44° ENE 20:08:21 10° N
X-37B 2.4 20:01:01 10° WSW 20:03:24 19° SSW 20:04:43 15° S
CREW DRAGON DEMO-1 DEB 2.3 20:01:04 10° WNW 20:03:44 84° SSW 20:05:17 21° ESE
COSMOS 2406 3.2 20:00:15 10° NNW 20:05:58 81° ENE 20:10:34 16° SSE
Resurs 01 Rocket 2.4 20:03:09 10° S 20:07:27 49° W 20:11:48 10° NNW
Cosmos 2084 3.3 20:03:36 10° SSW 20:07:42 69° SE 20:11:58 10° NE
Cosmos 2228 Rocket 4.4 20:08:07 17° SE 20:10:15 24° E 20:13:51 10° NE
Cosmos 1538 Rocket 4.1 20:09:22 10° NNW 20:14:46 78° ENE 20:18:46 18° SSE
Meteor 2-6 Rocket 4.3 20:12:09 11° S 20:17:10 56° E 20:22:35 10° NNE
Cosmos 773 Rocket 4.5 20:12:52 10° NNW 20:18:05 58° WSW 20:22:41 13° S
Cosmos 1271 Rocket 3.4 20:19:16 21° SSE 20:21:21 37° E 20:25:05 10° NNE
Cosmos 2278 Rocket 2.2 20:20:16 10° SSW 20:25:50 61° ESE 20:31:25 10° NE
Spot 2 Rocket 3.5 20:22:06 16° SSE 20:26:09 84° WSW 20:31:14 10° NNW
BREEZE-M DEB (TANK) 0.8 20:25:09 10° W 20:27:14 78° S 20:27:56 36° ESE
Cosmos 1782 3.8 20:24:26 10° SSW 20:28:17 46° WNW 20:32:09 10° N
USA 305 2.9 20:24:38 10° WNW 20:28:54 74° SSW 20:31:23 24° SE
Cosmos 1680 Rocket 4.3 20:26:10 10° NNW 20:31:12 41° ENE 20:34:33 20° ESE
Cosmos 1943 Rocket 3.8 20:32:27 14° ESE 20:33:12 15° E 20:36:12 10° ENE
Cosmos 1515 Rocket 3.5 20:29:37 13° S 20:33:33 87° E 20:37:58 10° N
Gbstr 26 Del rocket 4.4 20:25:55 10° W 20:33:45 75° N 20:40:20 10° E
ERS-1 Rocket 2.9 20:30:20 21° SSE 20:33:45 78° ENE 20:38:48 10° NNW
Cosmos 1869 Rocket 4.0 20:32:40 10° N 20:36:52 46° ENE 20:38:55 26° SE
CZ-4C R/B 3.3 20:30:37 10° NW 20:37:42 61° SW 20:43:47 19° SSE
Meteor 1-11 Rocket 3.9 20:38:09 10° N 20:44:09 73° ENE 20:47:53 24° SSE
deb Kosmos-1763 4.5 20:42:54 10° NNW 20:46:22 52° WSW 20:47:57 28° S
ATLAS 5 CENTAUR R/B 4.1 20:42:13 10° WNW 20:46:41 23° WSW 20:51:40 10° SSW
USA 306 3.0 20:43:59 10° WNW 20:48:11 58° SSW 20:49:58 31° SSE
Cosmos 1812 3.3 20:47:18 12° SSW 20:50:42 55° WNW 20:54:31 10° N
Cosmos 1777 Rocket 4.4 20:47:40 10° SW 20:52:49 63° WNW 20:58:00 10° NNE
Cosmos 1340 Rocket 3.6 20:50:11 10° N 20:54:04 40° ENE 20:55:28 30° ESE
ARIANE 5 R/B 3.4 20:52:22 18° SSW 20:55:15 45° W 20:59:26 10° NNW
Cosmos 1666 3.4 20:54:58 10° NNW 20:58:33 47° W 21:00:28 24° SSW
CARTOSAT-1 4.4 20:56:42 19° SSW 20:59:27 44° W 21:03:37 10° NNW
Meteor 2-12 Rocket 4.4 20:55:35 10° N 21:01:41 90° NNE 21:05:22 25° S
Cosmos 1833 Rocket 3.6 20:58:18 10° NW 21:03:33 40° WSW 21:07:04 19° SSW
Cosmos 2154 Rocket 4.0 20:59:34 10° N 21:05:57 87° ENE 21:09:42 26° S
BREEZE-M R/B 1.7 21:04:58 10° W 21:07:24 84° N 21:07:49 59° ENE
Cosmos 923 Rocket 4.0 21:02:20 10° NNW 21:07:38 86° WSW 21:10:12 32° SSE
SL-24 DEB 4.1 21:05:35 32° S 21:07:43 84° E 21:12:21 10° N
Cosmos 1898 Rocket 4.0 21:07:15 31° SSE 21:09:03 41° ESE 21:14:03 10° NE
Cosmos 1536 2.7 21:05:07 10° N 21:09:11 85° ENE 21:10:33 41° SSE
Meteor 1-10 Rocket 4.4 21:05:30 15° SSW 21:10:12 74° WNW 21:15:54 10° N
Cosmos 2184 Rocket 4.4 21:07:12 10° NNW 21:13:19 60° W 21:17:32 20° SSW
Cosmos 1743 3.1 21:09:49 10° N 21:13:35 51° ENE 21:14:28 41° ESE
USA 307 3.5 21:10:41 10° WNW 21:14:44 42° SW 21:15:38 37° S
H-2A R/B 3.4 21:12:12 10° NNE 21:16:26 89° WSW 21:18:18 33° SSW
NOSS 3-4 (A) 4.1 21:13:05 10° NW 21:19:55 60° SW 21:24:07 28° SSE
NOSS 3-4 (C) 4.1 21:13:11 10° NW 21:20:02 61° SW 21:24:12 28° SSE
Cosmos 990 Rocket 4.0 21:20:01 31° S 21:22:25 64° ESE 21:27:38 10° NNE
SJ 16-02 2.1 21:19:29 11° SW 21:23:42 51° WNW 21:28:04 10° NNE
Cosmos 1975 4.2 21:20:33 10° NNE 21:23:53 25° ENE 21:24:44 23° E
Nadezhda 1 Rocket 4.0 21:19:51 22° S 21:24:10 84° W 21:30:26 10° N
Cosmos 2297 4.0 21:22:45 33° SSE 21:24:47 48° ESE 21:30:13 10° NE
Cosmos 1733 Rocket 3.4 21:22:29 10° N 21:26:43 50° ENE 21:27:49 40° ESE
USA 308 3.7 21:24:22 10° WNW 21:28:17 35° SW 21:28:43 34° SSW
ATLAS 2AS CENTAUR R/B 2.8 21:26:10 10° NW 21:33:36 77° SW 21:37:04 32° SSE
Terra 2.6 21:33:01 26° SSW 21:35:13 43° W 21:39:47 10° NNW
USA 215 3.9 21:29:08 10° E 21:35:29 55° NNE 21:41:49 10° WNW
Cosmos 1544 3.2 21:32:52 10° NNW 21:36:27 63° W 21:37:03 52° SW
SPOT 5 4.4 21:38:33 18° SW 21:41:32 31° W 21:46:11 10° NNW
ERBS 2.9 21:39:26 10° NW 21:42:40 51° NNE 21:43:15 44° ENE
Cosmos 2082 Rocket 3.1 21:38:21 10° NW 21:43:29 38° WSW 21:45:50 26° SSW
Cosmos 2112 Rocket 4.2 21:40:58 10° NNW 21:46:17 65° WSW 21:48:11 39° S
Cosmos 2181 Rocket 4.1 21:44:37 36° SSE 21:46:59 58° E 21:53:00 10° NNE
Cosmos 2228 Rocket 4.2 21:45:34 19° SW 21:48:14 39° WNW 21:52:28 10° N
Cosmos 44 3.5 21:44:57 10° NW 21:50:22 69° SW 21:51:59 44° S
Cosmos 967 Rocket 4.4 21:49:30 31° SSW 21:52:35 66° ESE 21:58:49 10° NE
Cosmos 2366 rocket 4.0 21:47:15 10° N 21:53:25 69° ENE 21:55:56 37° SSE
Spot 4 3.9 21:55:19 46° SSE 21:56:43 75° ENE 22:01:36 10° NNW
Cosmos 2084 Rocket 3.4 21:54:16 10° NW 21:58:33 78° SW 21:59:14 61° SSE
Cosmos 2341 Rocket 4.1 21:54:54 10° NNW 22:01:17 72° W 22:04:08 35° S
BREEZE-M DEB (TANK) 3.3 21:56:54 10° W 22:02:24 52° N 22:03:26 31° ENE
Cosmos 1515 3.6 22:04:29 66° SW 22:04:52 74° W 22:08:40 10° N
Cosmos 2278 Rocket 4.0 22:05:24 10° WSW 22:10:19 30° NW 22:15:16 10° NNE
Cosmos 489 Rocket 4.4 22:04:39 10° NNW 22:10:55 84° WSW 22:13:17 41° SSE
Cosmos 1862 Rocket 3.4 22:10:40 62° S 22:11:23 89° W 22:15:44 10° N
Cosmos 1937 Rocket 3.4 22:09:32 41° SSW 22:11:24 86° WNW 22:16:37 10° NNE
Cosmos 1703 Rocket 4.4 22:11:43 34° E 22:12:01 34° E 22:16:01 10° NNE
SL-24 R/B - RUBIN 2 4.3 22:07:02 10° NW 22:12:15 46° WSW 22:13:07 41° SSW
Cosmos 2218 Rocket 4.0 22:09:30 10° N 22:15:49 83° W 22:18:16 40° S
Cosmos 1943 Rocket 2.1 22:13:55 40° SSW 22:16:05 84° ESE 22:21:43 10° NNE
Cosmos 2369 Rocket 2.4 22:17:10 44° SE 22:18:16 50° ESE 22:23:42 10° NE
Meteor 1-19 Rocket 4.0 22:19:24 44° SSW 22:21:10 86° W 22:26:37 10° NNE
Gbstr 26 Del rocket 3.9 22:13:57 10° WNW 22:21:14 70° SSW 22:23:48 37° SE
Cosmos 1238 Rocket 4.1 22:17:10 10° NNW 22:23:15 57° W 22:25:13 38° SSW
Cosmos 1048 Rocket 4.4 22:18:34 10° NNW 22:23:51 59° ENE 22:25:40 38° ESE
COBE Rocket 4.1 22:24:30 46° SE 22:25:53 66° ENE 22:31:01 10° N
Gblst 52 Del rocket 4.4 22:19:32 10° WNW 22:26:29 77° SSW 22:29:37 31° SE
Meteor 2-9 Rocket 4.4 22:21:02 10° NNW 22:26:47 64° W 22:28:36 42° SSW
Cosmos 1607 4.5 22:26:50 38° SE 22:28:02 42° ESE 22:34:04 10° NE
Okean 1 4.0 22:29:36 41° WSW 22:30:18 47° WNW 22:34:11 10° N
Okean 1-7 3.3 22:31:00 50° ESE 22:31:12 51° E 22:35:21 10° NNE
Thor Agena Rocket 4.2 22:27:20 10° NNE 22:32:16 39° E 22:33:11 36° ESE
Cosmos 1818 3.9 22:27:59 10° NW 22:33:16 49° WSW 22:34:12 44° SSW
Cosmos 2298 Rocket 4.5 22:35:33 42° SE 22:36:17 45° ESE 22:41:19 10° NE
Cosmos 1656 Rocket 4.0 22:35:34 41° SE 22:36:20 44° ESE 22:41:33 10° NE
Nadezhda 3 Rocket 4.3 22:35:11 38° SE 22:37:11 52° E 22:43:11 10° NNE
DNEPR-1 R/B 4.1 22:34:46 29° SW 22:37:46 78° NW 22:42:39 10° NE
ALOS 2 2.5 22:41:06 64° SSW 22:41:36 72° WSW 22:46:01 10° NNW
Cosmos 2263 4.4 22:43:18 47° SSE 22:44:36 59° ESE 22:50:18 10° NE
Cosmos 1356 Rocket 3.9 22:42:48 10° N 22:47:00 51° ENE 22:47:36 47° ESE
Meteor 2-4 Rocket 3.7 22:47:04 47° SSW 22:48:52 87° W 22:54:30 10° NNE
Meteor 1-13 Rocket 4.5 22:51:57 44° SE 22:53:17 55° E 22:58:41 10° NNE
SL-27 R/B 2.9 22:50:59 10° NNW 22:53:51 54° NNE 22:53:51 54° NNE
BREEZE-M DEB (TANK) 4.0 22:43:55 10° WNW 22:57:25 58° SW 22:58:40 47° SSE
Cosmos 1975 4.0 22:56:50 10° NNW 23:00:22 31° W 23:00:28 31° W
PSLV R/B 4.4 22:56:25 10° NNE 23:00:30 37° E 23:00:45 36° ESE
Sich 1 Rocket 4.0 22:58:40 10° N 23:03:10 54° ENE 23:04:02 46° ESE
RESURS DK-1 2.2 22:59:20 10° NNW 23:03:31 75° WSW 23:03:31 75° WSW
Cosmos 2150 Rocket 4.0 23:04:29 54° S 23:05:38 72° ESE 23:10:55 10° NNE
Cosmos 2297 Rocket 4.4 23:02:29 10° N 23:06:52 22° NE 23:11:14 10° E
Cosmos 1833 4.2 23:02:01 10° NNW 23:07:47 77° WSW 23:09:23 49° S
SeaSat 1 2.9 23:03:16 10° NE 23:08:02 45° ESE 23:08:32 43° SE
Cosmos 1461 3.5 23:07:22 38° WSW 23:09:00 61° NW 23:13:35 10° NE
Cosmos 2242 Rocket 3.8 23:09:01 53° WSW 23:09:41 61° WNW 23:14:08 10° N
Meteor 1-12 Rocket 4.2 23:05:05 10° NNW 23:11:00 84° W 23:12:43 48° S
Cosmos 2239 Rocket 4.4 23:05:02 10° N 23:11:22 86° W 23:13:35 44° S
ISS -2.3 23:18:16 32° ENE 23:18:16 32° ENE 23:20:13 10° ENE
USA 215 3.1 23:13:57 23° SE 23:18:21 79° SW 23:24:56 10° WNW
Cosmos 494 Rocket 3.9 23:13:58 10° NNW 23:19:09 70° WSW 23:20:07 56° SSW
Cosmos 1300 Rocket 3.6 23:16:38 10° N 23:21:04 71° E 23:21:41 60° SE
Okean 2 Rocket 3.3 23:18:48 10° N 23:23:10 59° ENE 23:23:56 50° ESE
ATLAS 2AS CENTAUR R/B 4.2 23:18:40 10° WNW 23:23:18 19° WSW 23:24:29 18° WSW
Cosmos 2151 Rocket 4.3 23:19:31 10° N 23:23:55 48° ENE 23:25:02 39° ESE
Cosmos 1867 3.5 23:25:56 45° SW 23:27:40 87° NW 23:33:12 10° NE
Cosmos 1125 Rocket 3.4 23:26:49 54° SSW 23:28:03 86° ESE 23:33:18 10° NNE
Cosmos 44 Rocket 3.4 23:24:19 10° NW 23:29:36 86° NE 23:31:23 42° SE
Cosmos 1378 3.5 23:34:53 54° WNW 23:34:53 54° WNW 23:38:30 10° N
ATLAS CENTAUR R/B 1.0 23:38:30 79° ENE 23:38:30 79° ENE 23:42:07 10° NE
Cosmos 2344 4.3 23:30:45 10° NW 23:39:55 75° SW 23:51:08 15° SSE
Cosmos 1934 Rocket 3.9 23:33:55 10° NNW 23:40:05 78° W 23:42:10 44° S
YAOGAN 11 4.4 23:41:08 45° SE 23:42:11 60° ENE 23:46:27 10° N
USA 281 3.7 23:36:59 16° SE 23:42:17 59° NE 23:48:44 10° NNW
Cosmos 1726 3.9 23:39:12 10° NNE 23:42:18 25° ENE 23:43:27 21° E
USA 81 4.0 23:43:37 10° N 23:48:57 80° E 23:50:37 45° SSE
Okean 3 4.0 23:50:46 42° W 23:51:22 45° WNW 23:55:28 10° N
Meteor 1-15 Rocket 4.3 23:48:31 10° NNW 23:54:08 63° W 23:55:50 44° SSW
Lacrosse 5 2.5 23:54:51 36° SE 23:55:09 37° SE 23:59:49 10° ENE
